• Processing (Info)

  • MPEC 2013-D19 : 2013 CY129

    The following Minor Planet Electronic Circular may be linked-to from your own Web pages, but must not otherwise be redistributed electronically.

    A form allowing access to any MPEC is at the bottom of this page.


    Read MPEC 2013-D18 Read MPEC 2013-D20


    M.P.E.C. 2013-D19                                Issued 2013 Feb. 17, 15:10 UT
    
         The Minor Planet Electronic Circulars contain information on unusual
             minor planets and routine data on comets.  They are published
       on behalf of Commission 20 of the International Astronomical Union by the
              Minor Planet Center, Smithsonian Astrophysical Observatory,
                              Cambridge, MA 02138, U.S.A.
    
                 Prepared using the Tamkin Foundation Computer Network
    
                                  MPC@CFA.HARVARD.EDU
                URL https://www.minorplanetcenter.net/    ISSN 1523-6714
    
                                      2013 CY129
    
    Observations:
         K13CC9Y* C2013 02 15.47111 10 56 17.929+00 29 59.47         21.0 wLED019F51
         K13CC9Y  C2013 02 15.48479 10 56 21.410+00 32 26.78         20.8 wLED019F51
         K13CC9Y  C2013 02 15.49848 10 56 24.863+00 34 54.86         21.1 wLED019F51
         K13CC9Y 2C2013 02 16.35294711 00 28.160+03 09 29.10         20.8 RtED019568
         K13CC9Y 2C2013 02 16.35420411 00 28.492+03 09 42.87         20.8 RtED019568
         K13CC9Y 2C2013 02 16.35545411 00 28.821+03 09 56.52         20.8 RtED019568
         K13CC9Y KC2013 02 16.42683 11 00 44.50 +03 22 45.3          21.1 RoED019291
         K13CC9Y KC2013 02 16.43186 11 00 45.85 +03 23 40.4          20.8 RoED019291
         K13CC9Y KC2013 02 16.43691 11 00 47.16 +03 24 35.6          20.9 RoED019291
         K13CC9Y KC2013 02 17.46550 11 05 38.51 +06 33 17.3          21.0 RoED019291
         K13CC9Y KC2013 02 17.46767 11 05 39.08 +06 33 41.5                oED019291
         K13CC9Y KC2013 02 17.46984 11 05 39.66 +06 34 05.1                oED019291
    
    Observer details:
    291 LPL/Spacewatch II.  Observer T. H. Bressi.  1.8-m f/2.7 reflector + CCD.
    568 Mauna Kea.  Observer L. Wells.  Measurers D. J. Tholen, B. Bolin,
        M. Micheli, R. J. Wainscoat.  3.6-m Canada-France-Hawaii Telescope.
    F51 Pan-STARRS 1, Haleakala.  Observers N. Primak, A. Schultz, S. Watters,
        T. Goggia.  Measurer PS1 Science Consortium.  1.8-m Ritchey-Chretien
        + CCD.
    
    Orbital elements:
    2013 CY129                                               Earth MOID = 0.1282 AU
    Epoch 2013 Apr. 18.0 TT = JDT 2456400.5                 MPC
    M  30.46341              (2000.0)            P               Q
    n   0.46560749     Peri.  354.53972     -0.82367474     -0.52993936
    a   1.6486283      Node   150.50096     +0.53455022     -0.84438771
    e   0.3230938      Incl.   24.19396     +0.18925112     +0.07857271
    P   2.12           H   24.3           G   0.15           U   6
    Residuals in seconds of arc
    130215 F51  0.1+  0.3-    130216 568  0.0   0.0     130216 291  0.0   0.0
    130215 F51  0.2+  0.2-    130216 568  0.0   0.0     130217 291  0.1+  0.1-
    130215 F51  0.2-  0.5+    130216 291  0.4-  0.1-    130217 291  0.0   0.2+
    130216 568  0.0   0.0     130216 291  0.2+  0.0     130217 291  0.0   0.1-
    
    Ephemeris:
    2013 CY129               a,e,i = 1.65, 0.32, 24                  q = 1.1160
    Date    TT    R. A. (2000) Decl.     Delta      r     Elong.  Phase     V
    2013 01 18    09 15 44.2 -40 25 01   0.2830  1.1386   116.5    50.7    23.7
    ...
    2013 02 02    10 00 20.2 -29 04 57   0.1873  1.1194   132.0    40.9    22.5
    ...
    2013 02 10    10 31 48.0 -14 21 44   0.1492  1.1160   147.9    28.0    21.6
    ...
    2013 02 16    10 58 45.5 +02 05 33   0.1347  1.1167   161.8    16.1    21.1
    2013 02 17    11 03 28.1 +05 08 02   0.1339  1.1171   163.3    14.7    21.0
    2013 02 18    11 08 13.3 +08 12 10   0.1336  1.1175   164.2    13.9    21.0
    ...
    2013 02 24    11 37 12.1 +25 46 17   0.1421  1.1219   157.0    20.1    21.3
    ...
    2013 03 04    12 14 18.5 +42 41 12   0.1752  1.1317   140.2    34.1    22.2
    ...
    2013 03 19    13 06 08.2 +56 11 08   0.2681  1.1621   122.6    46.2    23.5
    
    A. U. Tomatic                (C) Copyright 2013 MPC           M.P.E.C. 2013-D19
    

    Read MPEC 2013-D18 Read MPEC 2013-D20


    MPEC number:

    Enter an MPEC number in one of the following forms:

    • 1997-B01 (the full form)
    • J97B01 (the packed version of the full form)
    • B01 (the abbreviated form)